Year,Month,Day,Hour,Minute,Value (Times are PST for temperature in C)
2018,05,17,00,00,11.40
2018,05,17,00,01,11.40
2018,05,17,00,02,11.40
2018,05,17,00,03,11.30
2018,05,17,00,04,11.30
2018,05,17,00,05,11.30
2018,05,17,00,06,11.30
2018,05,17,00,07,11.30
2018,05,17,00,08,11.30
2018,05,17,00,09,11.30
2018,05,17,00,10,11.20
2018,05,17,00,11,11.20
2018,05,17,00,12,11.20
2018,05,17,00,13,11.20
2018,05,17,00,14,11.20
2018,05,17,00,15,11.20
2018,05,17,00,16,11.20
2018,05,17,00,17,11.10
2018,05,17,00,18,11.10
2018,05,17,00,19,11.10
2018,05,17,00,20,11.10
2018,05,17,00,21,11.10
2018,05,17,00,22,11.10
2018,05,17,00,23,11.10
2018,05,17,00,24,11.10
2018,05,17,00,25,11.10
2018,05,17,00,26,11.10
2018,05,17,00,27,11.10
2018,05,17,00,28,11.10
2018,05,17,00,29,11.10
2018,05,17,00,30,11.10
2018,05,17,00,31,11.00
2018,05,17,00,32,11.00
2018,05,17,00,33,11.00
2018,05,17,00,34,11.00
2018,05,17,00,35,11.00
2018,05,17,00,36,11.00
2018,05,17,00,37,11.00
2018,05,17,00,38,11.10
2018,05,17,00,39,11.10
2018,05,17,00,40,11.10
2018,05,17,00,41,11.10
2018,05,17,00,42,11.10
2018,05,17,00,43,11.10
2018,05,17,00,44,11.10
2018,05,17,00,45,11.10
2018,05,17,00,46,11.10
2018,05,17,00,47,11.00
2018,05,17,00,48,11.00
2018,05,17,00,49,10.90
2018,05,17,00,50,10.90
2018,05,17,00,51,10.90
2018,05,17,00,52,10.90
2018,05,17,00,53,10.90
2018,05,17,00,54,10.90
2018,05,17,00,55,10.90
2018,05,17,00,56,10.90
2018,05,17,00,57,10.90
2018,05,17,00,58,10.90
2018,05,17,00,59,10.90
2018,05,17,01,00,10.80
2018,05,17,01,01,10.80
2018,05,17,01,02,10.80
2018,05,17,01,03,10.80
2018,05,17,01,04,10.80
2018,05,17,01,05,10.70
2018,05,17,01,06,10.70
2018,05,17,01,07,10.70
2018,05,17,01,08,10.70
2018,05,17,01,09,10.70
2018,05,17,01,10,10.70
2018,05,17,01,11,10.60
2018,05,17,01,12,10.60
2018,05,17,01,13,10.60
2018,05,17,01,14,10.60
2018,05,17,01,15,10.50
2018,05,17,01,16,10.50
2018,05,17,01,17,10.50
2018,05,17,01,18,10.50
2018,05,17,01,19,10.40
2018,05,17,01,20,10.40
2018,05,17,01,21,10.40
2018,05,17,01,22,10.40
2018,05,17,01,23,10.40
2018,05,17,01,24,10.40
2018,05,17,01,25,10.40
2018,05,17,01,26,10.40
2018,05,17,01,27,10.40
2018,05,17,01,28,10.40
2018,05,17,01,29,10.40
2018,05,17,01,30,10.30
2018,05,17,01,31,10.30
2018,05,17,01,32,10.30
2018,05,17,01,33,10.30
2018,05,17,01,34,10.30
2018,05,17,01,35,10.30
2018,05,17,01,36,10.20
2018,05,17,01,37,10.20
2018,05,17,01,38,10.20
2018,05,17,01,39,10.20
2018,05,17,01,40,10.20
2018,05,17,01,41,10.30
2018,05,17,01,42,10.30
2018,05,17,01,43,10.30
2018,05,17,01,44,10.30
2018,05,17,01,45,10.30
2018,05,17,01,46,10.30
2018,05,17,01,47,10.30
2018,05,17,01,48,10.30
2018,05,17,01,49,10.30
2018,05,17,01,50,10.30
2018,05,17,01,51,10.30
2018,05,17,01,52,10.30
2018,05,17,01,53,10.30
2018,05,17,01,54,10.30
2018,05,17,01,55,10.30
2018,05,17,01,56,10.30
2018,05,17,01,57,10.30
2018,05,17,01,58,10.20
2018,05,17,01,59,10.20
2018,05,17,02,00,10.20
2018,05,17,02,01,10.20
2018,05,17,02,02,10.10
2018,05,17,02,03,10.10
2018,05,17,02,04,10.10
2018,05,17,02,05,10.00
2018,05,17,02,06,10.00
2018,05,17,02,07,10.00
2018,05,17,02,08,10.00
2018,05,17,02,09,10.00
2018,05,17,02,10,10.00
2018,05,17,02,11,10.00
2018,05,17,02,12,10.00
2018,05,17,02,13,10.00
2018,05,17,02,14,9.90
2018,05,17,02,15,9.90
2018,05,17,02,16,9.90
2018,05,17,02,17,9.90
2018,05,17,02,18,9.90
2018,05,17,02,19,9.90
2018,05,17,02,20,10.00
2018,05,17,02,21,10.00
2018,05,17,02,22,10.00
2018,05,17,02,23,10.10
2018,05,17,02,24,10.10
2018,05,17,02,25,10.10
2018,05,17,02,26,10.10
2018,05,17,02,27,10.10
2018,05,17,02,28,10.10
2018,05,17,02,29,10.10
2018,05,17,02,30,10.10
2018,05,17,02,31,10.10
2018,05,17,02,32,10.10
2018,05,17,02,33,10.10
2018,05,17,02,34,10.10
2018,05,17,02,35,10.10
2018,05,17,02,36,10.10
2018,05,17,02,37,10.10
2018,05,17,02,38,10.10
2018,05,17,02,39,10.10
2018,05,17,02,40,10.10
2018,05,17,02,41,10.10
2018,05,17,02,42,10.10
2018,05,17,02,43,10.10
2018,05,17,02,44,10.10
2018,05,17,02,45,10.10
2018,05,17,02,46,10.10
2018,05,17,02,47,10.10
2018,05,17,02,48,10.20
2018,05,17,02,49,10.20
2018,05,17,02,50,10.20
2018,05,17,02,51,10.20
2018,05,17,02,52,10.10
2018,05,17,02,53,10.10
2018,05,17,02,54,10.10
2018,05,17,02,55,10.10
2018,05,17,02,56,10.10
2018,05,17,02,57,10.10
2018,05,17,02,58,10.10
2018,05,17,02,59,10.10
2018,05,17,03,00,10.10
2018,05,17,03,01,10.10
2018,05,17,03,02,10.10
2018,05,17,03,03,10.00
2018,05,17,03,04,10.00
2018,05,17,03,05,10.00
2018,05,17,03,06,9.90
2018,05,17,03,07,9.90
2018,05,17,03,08,9.90
2018,05,17,03,09,9.90
2018,05,17,03,10,9.90
2018,05,17,03,11,9.90
2018,05,17,03,12,9.90
2018,05,17,03,13,9.90
2018,05,17,03,14,9.90
2018,05,17,03,15,9.90
2018,05,17,03,16,9.90
2018,05,17,03,17,9.90
2018,05,17,03,18,9.90
2018,05,17,03,19,9.90
2018,05,17,03,20,9.90
2018,05,17,03,21,9.80
2018,05,17,03,22,9.80
2018,05,17,03,23,9.80
2018,05,17,03,24,9.80
2018,05,17,03,25,9.70
2018,05,17,03,26,9.70
2018,05,17,03,27,9.60
2018,05,17,03,28,9.60
2018,05,17,03,29,9.60
2018,05,17,03,30,9.60
2018,05,17,03,31,9.60
2018,05,17,03,32,9.50
2018,05,17,03,33,9.50
2018,05,17,03,34,9.50
2018,05,17,03,35,9.50
2018,05,17,03,36,9.60
2018,05,17,03,37,9.60
2018,05,17,03,38,9.60
2018,05,17,03,39,9.60
2018,05,17,03,40,9.60
2018,05,17,03,41,9.60
2018,05,17,03,42,9.60
2018,05,17,03,43,9.60
2018,05,17,03,44,9.60
2018,05,17,03,45,9.60
2018,05,17,03,46,9.60
2018,05,17,03,47,9.60
2018,05,17,03,48,9.60
2018,05,17,03,49,9.60
2018,05,17,03,50,9.60
2018,05,17,03,51,9.60
2018,05,17,03,52,9.60
2018,05,17,03,53,9.60
2018,05,17,03,54,9.60
2018,05,17,03,55,9.50
2018,05,17,03,56,9.50
2018,05,17,03,57,9.50
2018,05,17,03,58,9.50
2018,05,17,03,59,9.40
2018,05,17,04,00,9.40
2018,05,17,04,01,9.40
2018,05,17,04,02,9.40
2018,05,17,04,03,9.40
2018,05,17,04,04,9.40
2018,05,17,04,08,9.40
2018,05,17,04,09,9.40
2018,05,17,04,10,9.40
2018,05,17,04,11,9.40
2018,05,17,04,12,9.40
2018,05,17,04,13,9.40
2018,05,17,04,14,9.40
2018,05,17,04,15,9.40
2018,05,17,04,16,9.40
2018,05,17,04,17,9.40
2018,05,17,04,18,9.40
2018,05,17,04,19,9.40
2018,05,17,04,20,9.40
2018,05,17,04,21,9.40
2018,05,17,04,22,9.40
2018,05,17,04,23,9.50
2018,05,17,04,24,9.50
2018,05,17,04,25,9.50
2018,05,17,04,26,9.40
2018,05,17,04,27,9.40
2018,05,17,04,28,9.50
2018,05,17,04,29,9.40
2018,05,17,04,30,9.40
2018,05,17,04,31,9.40
2018,05,17,04,32,9.40
2018,05,17,04,33,9.40
2018,05,17,04,34,9.40
2018,05,17,04,35,9.40
2018,05,17,04,36,9.40
2018,05,17,04,37,9.40
2018,05,17,04,38,9.40
2018,05,17,04,39,9.40
2018,05,17,04,40,9.40
2018,05,17,04,41,9.40
2018,05,17,04,42,9.40
2018,05,17,04,43,9.40
2018,05,17,04,44,9.40
2018,05,17,04,45,9.40
2018,05,17,04,46,9.40
2018,05,17,04,47,9.40
2018,05,17,04,48,9.40
2018,05,17,04,49,9.40
2018,05,17,04,50,9.40
2018,05,17,04,51,9.40
2018,05,17,04,52,9.40
2018,05,17,04,53,9.40
2018,05,17,04,54,9.40
2018,05,17,04,55,9.30
2018,05,17,04,56,9.30
2018,05,17,04,57,9.30
2018,05,17,04,58,9.30
2018,05,17,04,59,9.30
2018,05,17,05,00,9.30
2018,05,17,05,01,9.30
2018,05,17,05,02,9.30
2018,05,17,05,03,9.30
2018,05,17,05,04,9.30
2018,05,17,05,05,9.30
2018,05,17,05,06,9.30
2018,05,17,05,07,9.30
2018,05,17,05,08,9.30
2018,05,17,05,09,9.30
2018,05,17,05,10,9.30
2018,05,17,05,11,9.30
2018,05,17,05,12,9.30
2018,05,17,05,13,9.30
2018,05,17,05,14,9.30
2018,05,17,05,15,9.30
2018,05,17,05,16,9.30
2018,05,17,05,17,9.20
2018,05,17,05,18,9.20
2018,05,17,05,19,9.30
2018,05,17,05,20,9.30
2018,05,17,05,21,9.30
2018,05,17,05,22,9.30
2018,05,17,05,23,9.30
2018,05,17,05,24,9.30
2018,05,17,05,25,9.30
2018,05,17,05,26,9.30
2018,05,17,05,27,9.30
2018,05,17,05,28,9.30
2018,05,17,05,29,9.30
2018,05,17,05,30,9.30
2018,05,17,05,31,9.30
2018,05,17,05,32,9.30
2018,05,17,05,33,9.30
2018,05,17,05,34,9.30
2018,05,17,05,35,9.30
2018,05,17,05,36,9.30
2018,05,17,05,37,9.30
2018,05,17,05,38,9.30
2018,05,17,05,39,9.30
2018,05,17,05,40,9.30
2018,05,17,05,41,9.30
2018,05,17,05,42,9.30
2018,05,17,05,43,9.30
2018,05,17,05,44,9.30
2018,05,17,05,45,9.30
2018,05,17,05,46,9.20
2018,05,17,05,47,9.20
2018,05,17,05,48,9.20
2018,05,17,05,49,9.20
2018,05,17,05,50,9.20
2018,05,17,05,51,9.20
2018,05,17,05,52,9.30
2018,05,17,05,53,9.30
2018,05,17,05,54,9.30
2018,05,17,05,55,9.30
2018,05,17,05,56,9.30
2018,05,17,05,57,9.30
2018,05,17,05,58,9.40
2018,05,17,05,59,9.40
2018,05,17,06,00,9.40
2018,05,17,06,01,9.50
2018,05,17,06,02,9.50
2018,05,17,06,03,9.60
2018,05,17,06,04,9.60
2018,05,17,06,05,9.70
2018,05,17,06,06,9.80
2018,05,17,06,07,9.90
2018,05,17,06,08,9.90
2018,05,17,06,09,9.90
2018,05,17,06,10,9.90
2018,05,17,06,11,10.00
2018,05,17,06,12,10.00
2018,05,17,06,13,10.00
2018,05,17,06,14,10.00
2018,05,17,06,15,10.00
2018,05,17,06,16,10.00
2018,05,17,06,17,10.10
2018,05,17,06,18,10.10
2018,05,17,06,19,10.10
2018,05,17,06,20,10.10
2018,05,17,06,21,10.20
2018,05,17,06,22,10.20
2018,05,17,06,23,10.20
2018,05,17,06,24,10.20
2018,05,17,06,25,10.30
2018,05,17,06,26,10.30
2018,05,17,06,27,10.30
2018,05,17,06,28,10.40
2018,05,17,06,29,10.40
2018,05,17,06,30,10.50
2018,05,17,06,31,10.50
2018,05,17,06,32,10.60
2018,05,17,06,33,10.60
2018,05,17,06,34,10.70
2018,05,17,06,35,10.70
2018,05,17,06,36,10.80
2018,05,17,06,37,10.80
2018,05,17,06,38,10.80
2018,05,17,06,39,10.90
2018,05,17,06,40,10.90
2018,05,17,06,41,10.90
2018,05,17,06,42,11.00
2018,05,17,06,43,11.00
2018,05,17,06,44,11.00
2018,05,17,06,45,11.00
2018,05,17,06,46,11.00
2018,05,17,06,47,11.10
2018,05,17,06,48,11.10
2018,05,17,06,49,11.10
2018,05,17,06,50,11.10
2018,05,17,06,51,11.10
2018,05,17,06,52,11.10
2018,05,17,06,53,11.10
2018,05,17,06,54,11.20
2018,05,17,06,55,11.20
2018,05,17,06,56,11.20
2018,05,17,06,57,11.20
2018,05,17,06,58,11.20
2018,05,17,06,59,11.30
2018,05,17,07,00,11.30
2018,05,17,07,01,11.30
2018,05,17,07,02,11.30
2018,05,17,07,03,11.30
2018,05,17,07,04,11.40
2018,05,17,07,05,11.40
2018,05,17,07,06,11.40
2018,05,17,07,07,11.40
2018,05,17,07,08,11.40
2018,05,17,07,09,11.40
2018,05,17,07,10,11.40
2018,05,17,07,11,11.40
2018,05,17,07,12,11.40
2018,05,17,07,13,11.40
2018,05,17,07,14,11.40
2018,05,17,07,15,11.40
2018,05,17,07,16,11.40
2018,05,17,07,17,11.40
2018,05,17,07,18,11.40
2018,05,17,07,19,11.40
2018,05,17,07,20,11.40
2018,05,17,07,21,11.50
2018,05,17,07,22,11.50
2018,05,17,07,23,11.50
2018,05,17,07,24,11.50
2018,05,17,07,25,11.60
2018,05,17,07,26,11.60
2018,05,17,07,27,11.60
2018,05,17,07,28,11.60
2018,05,17,07,29,11.60
2018,05,17,07,30,11.60
2018,05,17,07,31,11.70
2018,05,17,07,32,11.70
2018,05,17,07,33,11.70
2018,05,17,07,34,11.70
2018,05,17,07,35,11.70
2018,05,17,07,36,11.80
2018,05,17,07,37,11.80
2018,05,17,07,38,11.80
2018,05,17,07,39,11.80
2018,05,17,07,40,11.90
2018,05,17,07,41,11.90
2018,05,17,07,42,12.00
2018,05,17,07,43,12.10
2018,05,17,07,44,12.10
2018,05,17,07,45,12.20
2018,05,17,07,46,12.20
2018,05,17,07,47,12.20
2018,05,17,07,48,12.30
2018,05,17,07,49,12.30
2018,05,17,07,50,12.40
2018,05,17,07,51,12.40
2018,05,17,07,52,12.50
2018,05,17,07,53,12.50
2018,05,17,07,54,12.60
2018,05,17,07,55,12.60
2018,05,17,07,56,12.70
2018,05,17,07,57,12.70
2018,05,17,07,58,12.70
2018,05,17,07,59,12.70
2018,05,17,08,00,12.80
2018,05,17,08,01,12.80
2018,05,17,08,02,12.80
2018,05,17,08,03,12.90
2018,05,17,08,04,12.90
2018,05,17,08,05,13.00
2018,05,17,08,06,13.10
2018,05,17,08,07,13.10
2018,05,17,08,08,13.20
2018,05,17,08,09,13.30
2018,05,17,08,10,13.40
2018,05,17,08,11,13.50
2018,05,17,08,12,13.50
2018,05,17,08,13,13.40
2018,05,17,08,14,13.40
2018,05,17,08,15,13.30
2018,05,17,08,16,13.30
2018,05,17,08,17,13.30
2018,05,17,08,18,13.30
2018,05,17,08,19,13.30
2018,05,17,08,20,13.40
2018,05,17,08,21,13.40
2018,05,17,08,22,13.50
2018,05,17,08,23,13.60
2018,05,17,08,24,13.60
2018,05,17,08,25,13.70
2018,05,17,08,26,13.70
2018,05,17,08,27,13.80
2018,05,17,08,28,13.90
2018,05,17,08,29,13.90
2018,05,17,08,30,14.00
2018,05,17,08,31,14.10
2018,05,17,08,32,14.10
2018,05,17,08,33,14.20
2018,05,17,08,34,14.20
2018,05,17,08,35,14.30
2018,05,17,08,36,14.30
2018,05,17,08,37,14.30
2018,05,17,08,38,14.40
2018,05,17,08,39,14.50
2018,05,17,08,40,14.60
2018,05,17,08,41,14.70
2018,05,17,08,42,14.80
2018,05,17,08,43,14.90
2018,05,17,08,44,14.90
2018,05,17,08,45,15.00
2018,05,17,08,46,15.10
2018,05,17,08,47,15.10
2018,05,17,08,48,15.20
2018,05,17,08,49,15.30
2018,05,17,08,50,15.30
2018,05,17,08,51,15.30
2018,05,17,08,52,15.30
2018,05,17,08,53,15.40
2018,05,17,08,54,15.40
2018,05,17,08,55,15.40
2018,05,17,08,56,15.50
2018,05,17,08,57,15.50
2018,05,17,08,58,15.50
2018,05,17,08,59,15.40
2018,05,17,09,00,15.30
2018,05,17,09,01,15.10
2018,05,17,09,02,14.90
2018,05,17,09,03,14.80
2018,05,17,09,04,14.70
2018,05,17,09,05,14.60
2018,05,17,09,06,14.40
2018,05,17,09,07,14.30
2018,05,17,09,08,14.20
2018,05,17,09,09,14.10
2018,05,17,09,10,14.00
2018,05,17,09,11,14.00
2018,05,17,09,12,13.90
2018,05,17,09,13,13.90
2018,05,17,09,14,13.80
2018,05,17,09,15,13.70
2018,05,17,09,16,13.70
2018,05,17,09,17,13.60
2018,05,17,09,18,13.60
2018,05,17,09,19,13.50
2018,05,17,09,20,13.50
2018,05,17,09,21,13.50
2018,05,17,09,22,13.40
2018,05,17,09,23,13.40
2018,05,17,09,24,13.50
2018,05,17,09,25,13.50
2018,05,17,09,26,13.60
2018,05,17,09,27,13.60
2018,05,17,09,28,13.70
2018,05,17,09,29,13.60
2018,05,17,09,30,13.50
2018,05,17,09,31,13.50
2018,05,17,09,32,13.50
2018,05,17,09,33,13.40
2018,05,17,09,34,13.40
2018,05,17,09,35,13.40
2018,05,17,09,36,13.40
2018,05,17,09,37,13.40
2018,05,17,09,38,13.40
2018,05,17,09,39,13.40
2018,05,17,09,40,13.40
2018,05,17,09,41,13.40
2018,05,17,09,42,13.50
2018,05,17,09,43,13.50
2018,05,17,09,44,13.50
2018,05,17,09,45,13.50
2018,05,17,09,46,13.50
2018,05,17,09,47,13.50
2018,05,17,09,48,13.50
2018,05,17,09,49,13.60
2018,05,17,09,50,13.60
2018,05,17,09,51,13.50
2018,05,17,09,52,13.50
2018,05,17,09,53,13.50
2018,05,17,09,54,13.40
2018,05,17,09,55,13.40
2018,05,17,09,56,13.40
2018,05,17,09,57,13.40
2018,05,17,09,58,13.30
2018,05,17,09,59,13.30
2018,05,17,10,00,13.30
2018,05,17,10,01,13.30
2018,05,17,10,02,13.20
2018,05,17,10,03,13.20
2018,05,17,10,04,13.20
2018,05,17,10,05,13.20
2018,05,17,10,06,13.30
2018,05,17,10,07,13.40
2018,05,17,10,08,13.50
2018,05,17,10,09,13.60
2018,05,17,10,10,13.50
2018,05,17,10,11,13.50
2018,05,17,10,12,13.40
2018,05,17,10,13,13.40
2018,05,17,10,14,13.40
2018,05,17,10,15,13.40
2018,05,17,10,16,13.40
2018,05,17,10,17,13.40
2018,05,17,10,18,13.40
2018,05,17,10,19,13.40
2018,05,17,10,20,13.40
2018,05,17,10,21,13.40
2018,05,17,10,22,13.40
2018,05,17,10,23,13.50
2018,05,17,10,24,13.50
2018,05,17,10,25,13.60
2018,05,17,10,26,13.60
2018,05,17,10,27,13.70
2018,05,17,10,28,13.70
2018,05,17,10,29,13.70
2018,05,17,10,30,13.70
2018,05,17,10,31,13.70
2018,05,17,10,32,13.60
2018,05,17,10,33,13.60
2018,05,17,10,34,13.60
2018,05,17,10,35,13.60
2018,05,17,10,36,13.60
2018,05,17,10,37,13.70
2018,05,17,10,38,13.70
2018,05,17,10,39,13.60
2018,05,17,10,40,13.60
2018,05,17,10,41,13.60
2018,05,17,10,42,13.50
2018,05,17,10,43,13.50
2018,05,17,10,44,13.40
2018,05,17,10,45,13.40
2018,05,17,10,46,13.50
2018,05,17,10,47,13.50
2018,05,17,10,48,13.60
2018,05,17,10,49,13.70
2018,05,17,10,50,13.70
2018,05,17,10,51,13.80
2018,05,17,10,52,13.80
2018,05,17,10,53,13.90
2018,05,17,10,54,13.90
2018,05,17,10,55,13.90
2018,05,17,10,56,13.90
2018,05,17,10,57,13.90
2018,05,17,10,58,13.80
2018,05,17,10,59,13.80
2018,05,17,11,00,13.70
2018,05,17,11,01,13.70
2018,05,17,11,02,13.70
2018,05,17,11,03,13.70
2018,05,17,11,04,13.70
2018,05,17,11,05,13.80
2018,05,17,11,06,13.80
2018,05,17,11,07,13.90
2018,05,17,11,08,13.90
2018,05,17,11,09,13.90
2018,05,17,11,10,13.90
2018,05,17,11,11,13.90
2018,05,17,11,12,13.90
2018,05,17,11,13,13.90
2018,05,17,11,14,13.90
2018,05,17,11,15,13.80
2018,05,17,11,16,13.80
2018,05,17,11,17,13.80
2018,05,17,11,18,13.80
2018,05,17,11,19,13.80
2018,05,17,11,20,13.80
2018,05,17,11,21,13.80
2018,05,17,11,22,13.80
2018,05,17,11,23,13.80
2018,05,17,11,24,13.80
2018,05,17,11,25,13.80
2018,05,17,11,26,13.80
2018,05,17,11,27,13.80
2018,05,17,11,28,13.90
2018,05,17,11,29,13.90
2018,05,17,11,30,14.00
2018,05,17,11,31,14.10
2018,05,17,11,32,14.10
2018,05,17,11,33,14.10
2018,05,17,11,34,14.20
2018,05,17,11,35,14.20
2018,05,17,11,36,14.20
2018,05,17,11,37,14.20
2018,05,17,11,38,14.20
2018,05,17,11,39,14.20
2018,05,17,11,40,14.20
2018,05,17,11,41,14.20
2018,05,17,11,42,14.20
2018,05,17,11,43,14.20
2018,05,17,11,44,14.20
2018,05,17,11,45,14.20
2018,05,17,11,46,14.20
2018,05,17,11,47,14.10
2018,05,17,11,48,14.10
2018,05,17,11,49,14.00
2018,05,17,11,50,14.00
2018,05,17,11,51,14.00
2018,05,17,11,52,14.00
2018,05,17,11,53,14.10
2018,05,17,11,54,14.10
2018,05,17,11,55,14.10
2018,05,17,11,56,14.10
2018,05,17,11,57,14.10
2018,05,17,11,58,14.20
2018,05,17,11,59,14.20
2018,05,17,12,00,14.10
2018,05,17,12,01,14.00
2018,05,17,12,02,14.00
2018,05,17,12,03,13.90
2018,05,17,12,04,13.80
2018,05,17,12,05,13.80
2018,05,17,12,06,13.70
2018,05,17,12,07,13.70
2018,05,17,12,08,13.70
2018,05,17,12,09,13.70
2018,05,17,12,10,13.70
2018,05,17,12,11,13.70
2018,05,17,12,12,13.70
2018,05,17,12,13,13.70
2018,05,17,12,14,13.70
2018,05,17,12,15,13.70
2018,05,17,12,16,13.80
2018,05,17,12,17,13.80
2018,05,17,12,18,13.80
2018,05,17,12,19,13.80
2018,05,17,12,20,13.80
2018,05,17,12,21,13.80
2018,05,17,12,22,13.80
2018,05,17,12,23,13.80
2018,05,17,12,24,13.80
2018,05,17,12,25,13.80
2018,05,17,12,26,13.90
2018,05,17,12,27,13.90
2018,05,17,12,28,13.90
2018,05,17,12,29,13.90
2018,05,17,12,30,13.90
2018,05,17,12,31,13.90
2018,05,17,12,32,14.00
2018,05,17,12,33,14.00
2018,05,17,12,34,14.10
2018,05,17,12,35,14.20
2018,05,17,12,36,14.20
2018,05,17,12,37,14.20
2018,05,17,12,38,14.20
2018,05,17,12,39,14.20
2018,05,17,12,40,14.20
2018,05,17,12,41,14.20
2018,05,17,12,42,14.20
2018,05,17,12,43,14.20
2018,05,17,12,44,14.20
2018,05,17,12,45,14.20
2018,05,17,12,46,14.30
2018,05,17,12,47,14.30
2018,05,17,12,48,14.30
2018,05,17,12,49,14.30
2018,05,17,12,50,14.30
2018,05,17,12,51,14.30
2018,05,17,12,52,14.30
2018,05,17,12,53,14.30
2018,05,17,12,54,14.30
2018,05,17,12,55,14.30
2018,05,17,12,56,14.30
2018,05,17,12,57,14.30
2018,05,17,12,58,14.30
2018,05,17,12,59,14.40
2018,05,17,13,00,14.40
2018,05,17,13,01,14.40
2018,05,17,13,02,14.40
2018,05,17,13,03,14.30
2018,05,17,13,04,14.20
2018,05,17,13,05,14.20
2018,05,17,13,06,14.30
2018,05,17,13,07,14.30
2018,05,17,13,08,14.30
2018,05,17,13,09,14.20
2018,05,17,13,10,14.20
2018,05,17,13,11,14.10
2018,05,17,13,12,14.10
2018,05,17,13,13,14.10
2018,05,17,13,14,14.10
2018,05,17,13,15,14.00
2018,05,17,13,16,14.10
2018,05,17,13,17,14.10
2018,05,17,13,18,14.20
2018,05,17,13,19,14.30
2018,05,17,13,20,14.40
2018,05,17,13,21,14.50
2018,05,17,13,22,14.50
2018,05,17,13,23,14.60
2018,05,17,13,24,14.70
2018,05,17,13,25,14.80
2018,05,17,13,26,14.90
2018,05,17,13,27,14.90
2018,05,17,13,28,14.90
2018,05,17,13,29,14.90
2018,05,17,13,30,14.80
2018,05,17,13,31,14.80
2018,05,17,13,32,14.80
2018,05,17,13,33,14.80
2018,05,17,13,34,14.80
2018,05,17,13,35,14.80
2018,05,17,13,36,14.80
2018,05,17,13,37,14.80
2018,05,17,13,38,14.90
2018,05,17,13,39,14.90
2018,05,17,13,40,14.90
2018,05,17,13,41,14.90
2018,05,17,13,42,15.00
2018,05,17,13,43,14.90
2018,05,17,13,44,14.90
2018,05,17,13,45,14.90
2018,05,17,13,46,15.00
2018,05,17,13,47,15.10
2018,05,17,13,48,15.20
2018,05,17,13,49,15.20
2018,05,17,13,50,15.20
2018,05,17,13,51,15.20
2018,05,17,13,52,15.20
2018,05,17,13,53,15.10
2018,05,17,13,54,15.00
2018,05,17,13,55,15.00
2018,05,17,13,56,14.90
2018,05,17,13,57,14.80
2018,05,17,13,58,14.70
2018,05,17,13,59,14.70
2018,05,17,14,00,14.70
2018,05,17,14,01,14.70
2018,05,17,14,02,14.70
2018,05,17,14,03,14.70
2018,05,17,14,04,14.70
2018,05,17,14,05,14.70
2018,05,17,14,06,14.70
2018,05,17,14,07,14.70
2018,05,17,14,08,14.80
2018,05,17,14,09,14.80
2018,05,17,14,10,14.80
2018,05,17,14,11,14.90
2018,05,17,14,12,15.00
2018,05,17,14,13,15.00
2018,05,17,14,14,15.00
2018,05,17,14,15,15.10
2018,05,17,14,16,15.10
2018,05,17,14,17,15.20
2018,05,17,14,18,15.20
2018,05,17,14,19,15.30
2018,05,17,14,20,15.30
2018,05,17,14,21,15.40
2018,05,17,14,22,15.40
2018,05,17,14,23,15.40
2018,05,17,14,24,15.50
2018,05,17,14,25,15.50
2018,05,17,14,26,15.50
2018,05,17,14,27,15.50
2018,05,17,14,28,15.50
2018,05,17,14,29,15.60
2018,05,17,14,30,15.60
2018,05,17,14,31,15.60
2018,05,17,14,32,15.60
2018,05,17,14,33,15.60
2018,05,17,14,34,15.60
2018,05,17,14,35,15.50
2018,05,17,14,36,15.50
2018,05,17,14,37,15.50
2018,05,17,14,38,15.50
2018,05,17,14,39,15.60
2018,05,17,14,40,15.70
2018,05,17,14,41,15.80
2018,05,17,14,42,15.90
2018,05,17,14,43,16.00
2018,05,17,14,44,16.10
2018,05,17,14,45,16.20
2018,05,17,14,46,16.20
2018,05,17,14,47,16.10
2018,05,17,14,48,16.10
2018,05,17,14,49,16.10
2018,05,17,14,50,16.10
2018,05,17,14,51,16.10
2018,05,17,14,52,16.00
2018,05,17,14,53,15.90
2018,05,17,14,54,15.90
2018,05,17,14,55,15.90
2018,05,17,14,56,16.00
2018,05,17,14,57,16.10
2018,05,17,14,58,16.20
2018,05,17,14,59,16.30
2018,05,17,15,00,16.40
2018,05,17,15,01,16.60
2018,05,17,15,02,16.70
2018,05,17,15,03,16.70
2018,05,17,15,04,16.80
2018,05,17,15,05,16.90
2018,05,17,15,06,16.90
2018,05,17,15,07,17.00
2018,05,17,15,08,17.00
2018,05,17,15,09,17.10
2018,05,17,15,10,17.20
2018,05,17,15,11,17.30
2018,05,17,15,12,17.40
2018,05,17,15,13,17.50
2018,05,17,15,14,17.50
2018,05,17,15,15,17.60
2018,05,17,15,16,17.60
2018,05,17,15,17,17.70
2018,05,17,15,18,17.70
2018,05,17,15,19,17.70
2018,05,17,15,20,17.80
2018,05,17,15,21,17.90
2018,05,17,15,22,18.00
2018,05,17,15,23,18.00
2018,05,17,15,24,18.10
2018,05,17,15,25,18.10
2018,05,17,15,26,18.20
2018,05,17,15,27,18.20
2018,05,17,15,28,18.20
2018,05,17,15,29,18.30
2018,05,17,15,30,18.30
2018,05,17,15,31,18.30
2018,05,17,15,32,18.30
2018,05,17,15,33,18.30
2018,05,17,15,34,18.30
2018,05,17,15,35,18.20
2018,05,17,15,36,18.20
2018,05,17,15,37,18.20
2018,05,17,15,38,18.20
2018,05,17,15,39,18.30
2018,05,17,15,40,18.30
2018,05,17,15,41,18.30
2018,05,17,15,42,18.30
2018,05,17,15,43,18.30
2018,05,17,15,44,18.30
2018,05,17,15,45,18.40
2018,05,17,15,46,18.40
2018,05,17,15,47,18.40
2018,05,17,15,48,18.40
2018,05,17,15,49,18.50
2018,05,17,15,50,18.50
2018,05,17,15,51,18.50
2018,05,17,15,52,18.60
2018,05,17,15,53,18.60
2018,05,17,15,54,18.60
2018,05,17,15,55,18.50
2018,05,17,15,56,18.60
2018,05,17,15,57,18.60
2018,05,17,15,58,18.60
2018,05,17,15,59,18.60
2018,05,17,16,00,18.50
2018,05,17,16,01,18.50
2018,05,17,16,02,18.50
2018,05,17,16,03,18.50
2018,05,17,16,04,18.40
2018,05,17,16,05,18.40
2018,05,17,16,06,18.40
2018,05,17,16,07,18.40
2018,05,17,16,08,18.40
2018,05,17,16,09,18.50
2018,05,17,16,10,18.50
2018,05,17,16,11,18.60
2018,05,17,16,12,18.60
2018,05,17,16,13,18.60
2018,05,17,16,14,18.60
2018,05,17,16,15,18.70
2018,05,17,16,16,18.70
2018,05,17,16,17,18.70
2018,05,17,16,18,18.70
2018,05,17,16,19,18.80
2018,05,17,16,20,18.80
2018,05,17,16,21,18.70
2018,05,17,16,22,18.70
2018,05,17,16,23,18.60
2018,05,17,16,24,18.60
2018,05,17,16,25,18.50
2018,05,17,16,26,18.50
2018,05,17,16,27,18.60
2018,05,17,16,28,18.60
2018,05,17,16,29,18.60
2018,05,17,16,30,18.60
2018,05,17,16,31,18.70
2018,05,17,16,32,18.70
2018,05,17,16,33,18.70
2018,05,17,16,34,18.70
2018,05,17,16,35,18.70
2018,05,17,16,36,18.70
2018,05,17,16,37,18.70
2018,05,17,16,38,18.70
2018,05,17,16,39,18.70
2018,05,17,16,40,18.60
2018,05,17,16,41,18.50
2018,05,17,16,42,18.30
2018,05,17,16,43,18.20
2018,05,17,16,44,18.00
2018,05,17,16,45,17.80
2018,05,17,16,46,17.60
2018,05,17,16,47,17.40
2018,05,17,16,48,17.30
2018,05,17,16,49,17.20
2018,05,17,16,50,17.10
2018,05,17,16,51,17.00
2018,05,17,16,52,16.90
2018,05,17,16,53,16.80
2018,05,17,16,54,16.70
2018,05,17,16,55,16.70
2018,05,17,16,56,16.60
2018,05,17,16,57,16.50
2018,05,17,16,58,16.40
2018,05,17,16,59,16.30
2018,05,17,17,00,16.20
2018,05,17,17,01,16.10
2018,05,17,17,02,16.00
2018,05,17,17,03,15.90
2018,05,17,17,04,15.90
2018,05,17,17,05,15.80
2018,05,17,17,06,15.80
2018,05,17,17,07,15.90
2018,05,17,17,08,15.90
2018,05,17,17,09,15.90
2018,05,17,17,10,15.80
2018,05,17,17,11,15.80
2018,05,17,17,12,15.70
2018,05,17,17,13,15.60
2018,05,17,17,14,15.60
2018,05,17,17,15,15.60
2018,05,17,17,16,15.60
2018,05,17,17,17,15.70
2018,05,17,17,18,15.70
2018,05,17,17,19,15.70
2018,05,17,17,20,15.70
2018,05,17,17,21,15.70
2018,05,17,17,22,15.70
2018,05,17,17,23,15.80
2018,05,17,17,24,15.80
2018,05,17,17,25,15.80
2018,05,17,17,26,15.90
2018,05,17,17,27,15.90
2018,05,17,17,28,15.90
2018,05,17,17,29,15.90
2018,05,17,17,30,16.00